TimeCST,TemperatureF,Dew PointF,Humidity,Sea Level PressureIn,VisibilityMPH,Wind Direction,Wind SpeedMPH,Gust SpeedMPH,PrecipitationIn,Events,Conditions,WindDirDegrees,DateUTC
12:15 AM,44.6,26.6,49,29.99,10.0,East,9.2,-,N/A,,Clear,100,2013-02-20 06:15:00
12:35 AM,44.6,26.6,49,29.97,10.0,East,10.4,-,N/A,,Clear,90,2013-02-20 06:35:00
12:55 AM,44.6,26.6,49,29.96,10.0,East,10.4,-,N/A,,Scattered Clouds,90,2013-02-20 06:55:00
1:15 AM,42.8,26.6,53,29.95,10.0,NE,10.4,-,N/A,,Mostly Cloudy,50,2013-02-20 07:15:00
1:35 AM,42.8,26.6,53,29.94,10.0,ENE,10.4,-,N/A,,Overcast,60,2013-02-20 07:35:00
1:55 AM,44.6,26.6,49,29.93,10.0,ESE,8.1,-,N/A,,Mostly Cloudy,110,2013-02-20 07:55:00
2:15 AM,42.8,24.8,49,29.94,10.0,East,5.8,-,N/A,,Scattered Clouds,100,2013-02-20 08:15:00
2:35 AM,39.2,24.8,56,29.93,10.0,Calm,Calm,-,N/A,,Clear,0,2013-02-20 08:35:00
2:55 AM,35.6,23.0,60,29.93,10.0,Calm,Calm,-,N/A,,Clear,0,2013-02-20 08:55:00
3:15 AM,35.6,23.0,60,29.91,10.0,Calm,Calm,-,N/A,,Clear,0,2013-02-20 09:15:00
3:35 AM,33.8,24.8,70,29.91,10.0,Calm,Calm,-,N/A,,Clear,0,2013-02-20 09:35:00
3:55 AM,32.0,21.2,64,29.90,10.0,NE,5.8,-,N/A,,Clear,40,2013-02-20 09:55:00
4:15 AM,30.2,23.0,75,29.90,10.0,NE,4.6,-,N/A,,Clear,40,2013-02-20 10:15:00
4:35 AM,28.4,21.2,74,29.89,10.0,NNW,9.2,-,N/A,,Clear,340,2013-02-20 10:35:00
4:55 AM,30.2,21.2,69,29.89,10.0,North,3.5,-,N/A,,Clear,360,2013-02-20 10:55:00
5:15 AM,28.4,21.2,74,29.88,10.0,North,3.5,-,N/A,,Clear,350,2013-02-20 11:15:00
5:35 AM,28.4,21.2,74,29.88,10.0,NNW,5.8,-,N/A,,Clear,340,2013-02-20 11:35:00
5:55 AM,28.4,23.0,80,29.87,10.0,North,5.8,-,N/A,,Clear,10,2013-02-20 11:55:00
6:15 AM,26.6,21.2,80,29.87,10.0,NNE,4.6,-,N/A,,Clear,20,2013-02-20 12:15:00
6:55 AM,24.8,21.2,86,29.87,10.0,North,4.6,-,N/A,,Clear,360,2013-02-20 12:55:00
7:15 AM,24.8,21.2,86,29.87,10.0,NNW,4.6,-,N/A,,Clear,330,2013-02-20 13:15:00
7:35 AM,24.8,19.4,80,29.87,10.0,NNW,4.6,20.7,N/A,,Clear,340,2013-02-20 13:35:00
7:55 AM,24.8,21.2,86,29.87,10.0,NNE,5.8,-,N/A,,Clear,20,2013-02-20 13:55:00
8:15 AM,30.2,26.6,86,29.87,10.0,NE,3.5,-,N/A,,Clear,40,2013-02-20 14:15:00
8:35 AM,33.8,28.4,81,29.88,10.0,Calm,Calm,-,N/A,,Clear,0,2013-02-20 14:35:00
9:15 AM,41.0,33.8,76,29.87,10.0,Calm,Calm,-,N/A,,Clear,0,2013-02-20 15:15:00
9:35 AM,42.8,33.8,70,29.87,10.0,SSW,4.6,-,N/A,,Clear,200,2013-02-20 15:35:00
9:55 AM,46.4,33.8,62,29.87,10.0,South,8.1,-,N/A,,Clear,170,2013-02-20 15:55:00
10:15 AM,50.0,33.8,54,29.86,10.0,South,9.2,-,N/A,,Clear,180,2013-02-20 16:15:00
10:35 AM,53.6,33.8,47,29.85,10.0,South,17.3,-,N/A,,Clear,180,2013-02-20 16:35:00
10:55 AM,55.4,33.8,44,29.84,10.0,South,11.5,-,N/A,,Clear,170,2013-02-20 16:55:00
11:15 AM,57.2,33.8,41,29.83,10.0,South,16.1,21.9,N/A,,Clear,180,2013-02-20 17:15:00
11:35 AM,57.2,33.8,41,29.83,10.0,South,16.1,21.9,N/A,,Clear,180,2013-02-20 17:35:00
11:55 AM,60.8,30.2,31,29.81,10.0,South,19.6,26.5,N/A,,Clear,180,2013-02-20 17:55:00
12:15 PM,62.6,30.2,30,29.80,10.0,South,21.9,27.6,N/A,,Clear,170,2013-02-20 18:15:00
12:35 PM,62.6,26.6,26,29.79,10.0,South,25.3,29.9,N/A,,Clear,180,2013-02-20 18:35:00
12:55 PM,64.4,26.6,24,29.77,10.0,South,23.0,27.6,N/A,,Clear,190,2013-02-20 18:55:00
1:15 PM,66.2,26.6,23,29.75,10.0,South,20.7,27.6,N/A,,Clear,190,2013-02-20 19:15:00
1:35 PM,66.2,24.8,21,29.73,10.0,South,19.6,29.9,N/A,,Clear,170,2013-02-20 19:35:00
1:55 PM,68.0,24.8,20,29.71,10.0,South,20.7,28.8,N/A,,Clear,180,2013-02-20 19:55:00
2:15 PM,69.8,15.8,13,29.69,10.0,South,27.6,35.7,N/A,,Clear,190,2013-02-20 20:15:00
2:35 PM,71.6,14.0,11,29.68,10.0,SSW,28.8,35.7,N/A,,Clear,200,2013-02-20 20:35:00
2:55 PM,71.6,12.2,10,29.66,10.0,South,25.3,39.1,N/A,,Clear,190,2013-02-20 20:55:00
3:15 PM,71.6,12.2,10,29.65,10.0,SSW,24.2,34.5,N/A,,Clear,200,2013-02-20 21:15:00
3:35 PM,71.6,14.0,11,29.63,10.0,South,27.6,34.5,N/A,,Clear,190,2013-02-20 21:35:00
3:55 PM,71.6,14.0,11,29.61,10.0,South,28.8,38.0,N/A,,Clear,190,2013-02-20 21:55:00
4:15 PM,71.6,14.0,11,29.61,10.0,SSW,26.5,34.5,N/A,,Clear,200,2013-02-20 22:15:00
4:35 PM,71.6,14.0,11,29.60,10.0,South,21.9,33.4,N/A,,Clear,190,2013-02-20 22:35:00
4:55 PM,71.6,14.0,11,29.58,10.0,South,21.9,29.9,N/A,,Clear,190,2013-02-20 22:55:00
5:15 PM,73.4,14.0,10,29.57,10.0,South,25.3,31.1,N/A,,Clear,190,2013-02-20 23:15:00
5:35 PM,71.6,14.0,11,29.57,10.0,SSW,21.9,29.9,N/A,,Clear,200,2013-02-20 23:35:00
5:55 PM,71.6,12.2,10,29.56,10.0,SSW,24.2,33.4,N/A,,Clear,210,2013-02-20 23:55:00
6:15 PM,71.6,12.2,10,29.57,10.0,SW,21.9,29.9,N/A,,Scattered Clouds,220,2013-02-21 00:15:00
6:35 PM,69.8,12.2,11,29.58,10.0,SW,19.6,28.8,N/A,,Mostly Cloudy,220,2013-02-21 00:35:00
6:55 PM,69.8,10.4,10,29.59,10.0,SW,21.9,-,N/A,,Overcast,230,2013-02-21 00:55:00
7:15 PM,68.0,10.4,11,29.60,10.0,SW,27.6,36.8,N/A,,Overcast,230,2013-02-21 01:15:00
7:35 PM,66.2,10.4,11,29.60,10.0,SW,24.2,34.5,N/A,,Overcast,220,2013-02-21 01:35:00
7:55 PM,66.2,8.6,11,29.61,10.0,SW,19.6,29.9,N/A,,Overcast,220,2013-02-21 01:55:00
8:15 PM,66.2,8.6,11,29.61,10.0,SW,25.3,32.2,N/A,,Overcast,230,2013-02-21 02:15:00
8:35 PM,64.4,8.6,11,29.62,10.0,SW,23.0,31.1,N/A,,Overcast,230,2013-02-21 02:35:00
8:55 PM,62.6,6.8,11,29.62,10.0,SW,24.2,28.8,N/A,,Overcast,230,2013-02-21 02:55:00
9:15 PM,62.6,6.8,11,29.62,10.0,SW,20.7,-,N/A,,Overcast,230,2013-02-21 03:15:00
9:35 PM,57.2,5.0,12,29.63,10.0,West,17.3,-,N/A,,Overcast,260,2013-02-21 03:35:00
9:55 PM,55.4,15.8,21,29.64,10.0,West,13.8,-,N/A,,Overcast,270,2013-02-21 03:55:00
10:15 PM,53.6,17.6,24,29.65,10.0,West,11.5,-,N/A,,Overcast,270,2013-02-21 04:15:00
10:35 PM,51.8,19.4,28,29.67,10.0,West,12.7,-,N/A,,Overcast,260,2013-02-21 04:35:00
10:55 PM,50.0,19.4,30,29.67,10.0,West,12.7,-,N/A,,Overcast,260,2013-02-21 04:55:00
11:15 PM,48.2,19.4,32,29.68,10.0,West,11.5,-,N/A,,Overcast,270,2013-02-21 05:15:00
11:35 PM,48.2,19.4,32,29.69,10.0,West,15.0,-,N/A,,Overcast,280,2013-02-21 05:35:00
11:55 PM,48.2,19.4,32,29.70,8.0,WNW,25.3,31.1,N/A,,Overcast,290,2013-02-21 05:55:00